Regional Weather Roundup
Issued by NWS Cleveland, OH

Home | Current Version | Previous Version | Graphics & Text | Print | Product List | Glossary On
Versions: 1 2 3 4 5 6 7 8 9 10 11 12 13 14 15 16 17 18 19 20 21 22 23 24 25 26 27 28 29 30 31 32 33 34 35 36 37 38 39 40 41 42 43 44 45 46 47 48 49 50
000
ASUS41 KCLE 281902
RWRCLE
OHIO REGIONAL WEATHER ROUNDUP
NATIONAL WEATHER SERVICE CLEVELAND, OH
300 PM EDT WED JUN 28 2017

NOTE: "FAIR" INDICATES FEW OR NO CLOUDS BELOW 12,000 FEET WITH NO
SIGNIFICANT WEATHER AND/OR OBSTRUCTIONS TO VISIBILITY.

OHZ001>008-015>018-024>027-034-035-043-044-282000-
   NORTHWEST OHIO

CITY           SKY/WX    TMP DP  RH WIND       PRES   REMARKS
DEFIANCE       CLOUDY    75  51  43 S12       30.07F
FINDLAY        MOSUNNY   78  49  35 SW15G24   30.08F
TOLEDO EXPRESS CLOUDY    76  51  41 S12       30.07F
TOLEDO EXEC    MOSUNNY   78  48  34 SW21      30.08F
LIMA           MOSUNNY   75  51  43 SW16      30.09F
$$

OHZ009>014-019>023-028>033-038-089-282000-
   NORTHEAST OHIO

CITY           SKY/WX    TMP DP  RH WIND       PRES   REMARKS
CLE-HOPKINS    CLOUDY    77  50  38 SW8       30.13F
CLE-LAKEFRONT  CLOUDY    74  52  46 N6        30.10F
CUY CO. ARPT   MOSUNNY   75  52  43 N6        30.12F
LORAIN-ELYRIA  CLOUDY    75  45  34 SW14      30.11F
ASHTABULA      CLOUDY    73  48  41 SW7       30.13F
AKRON-CANTON   CLOUDY    74  48  39 SW10      30.14F
WOOSTER        CLOUDY    74  48  39 SW9       30.14F
MANSFIELD      MOSUNNY   75  51  43 S13       30.13F
YOUNGSTOWN     CLOUDY    73  49  42 S13G22    30.15R
$$

OHZ042-051>053-060>062-070>072-077>081-282000-
  SOUTHWEST OHIO

CITY           SKY/WX    TMP DP  RH WIND       PRES   REMARKS
CINC-COVINGTON MOSUNNY   78  56  46 S9        30.12F
CINC-LUNKEN    SUNNY     79  57  46 S10       30.11F
HAMILTON       SUNNY     81  56  42 SW7       30.11F
DAYTON         PTSUNNY   76  52  43 S14       30.12F
WRIGHT-PAT AFB PTSUNNY   78  51  40 SW10G20   30.11F
DAYTON GENERAL SUNNY     77  53  43 S12       30.11F
WILMINGTON     MOSUNNY   73  54  51 S9        30.13F
$$

OHZ036-037-039>041-045>050-054>059-063>069-073>076-082>088-282000-
  CENTRAL AND SOUTHEAST OHIO

CITY           SKY/WX    TMP DP  RH WIND       PRES   REMARKS
COLUMBUS       CLOUDY    77  51  40 S10       30.13F
OSU AIRPORT    CLOUDY    76  52  43 S13       30.13F
BOLTON FIELD   SUNNY     75  54  46 SW12G20   30.14F
RICKENBACK AFB CLOUDY    76  52  42 SW7G18    30.13F
NEWARK         CLOUDY    78  47  33 S9        30.14F
MARION         MOSUNNY   75  50  41 S12G21    30.12F
LANCASTER      CLOUDY    74  55  51 SW8       30.16S
ZANESVILLE     CLOUDY    75  51  43 S9        30.15F
NEW PHILLY     NOT AVBL
$$




USA.gov is the U.S. government's official web portal to all federal, state and local government web resources and services.